When you browse on this site, cookies collect data to enhance your experience and personalize the content and advertising you see.
Visit our Privacy Policy to learn more. By continuing to use the site, you agree to this use of cookies and data.
  • In Deutschland
  • Länderverzeichnis
  • Für 7 Tage
  • Wassertemperatur
  • Satellitenkarten
  • Wetterkarte
  • Widgets
  • user-avatar
    Anmelden

    Stündliche Wetter Nola

    Heute, 14 Dezember, Freitag

    Zeit Temperatur Niederschläge Wind Luftdruck Luftfeuchtigkeit
    00:00 +11°C° 0.9 mm 3 m/S 753 mmHg 93%
    01:00 +11°C° 0 mm 3 m/S 753 mmHg 92%
    02:00 +11°C° 1.2 mm 3 m/S 753 mmHg 93%
    03:00 +11°C° 1.2 mm 3 m/S 753 mmHg 93%
    04:00 +11°C° 1.2 mm 3 m/S 752 mmHg 93%
    05:00 +11°C° 1.2 mm 3 m/S 752 mmHg 93%
    06:00 +11°C° 1.2 mm 3 m/S 752 mmHg 93%
    07:00 +11°C° 1.2 mm 3 m/S 752 mmHg 93%
    08:00 +12°C° 0.5 mm 3 m/S 752 mmHg 89%
    09:00 +12°C° 0.5 mm 3 m/S 752 mmHg 86%
    10:00 +13°C° 0.5 mm 3 m/S 752 mmHg 83%
    11:00 +14°C° 0.1 mm 3 m/S 752 mmHg 79%
    12:00 +14°C° 0.1 mm 3 m/S 752 mmHg 75%
    13:00 +16°C° 0.1 mm 3 m/S 752 mmHg 71%
    14:00 +15°C° 0.2 mm 2 m/S 752 mmHg 73%
    15:00 +15°C° 0.2 mm 2 m/S 752 mmHg 76%
    16:00 +14°C° 0.2 mm 2 m/S 752 mmHg 78%
    17:00 +14°C° 0.2 mm 2 m/S 752 mmHg 80%
    18:00 +13°C° 0.2 mm 2 m/S 752 mmHg 82%
    19:00 +13°C° 0.2 mm 2 m/S 752 mmHg 84%
    20:00 +13°C° 0.2 mm 2 m/S 752 mmHg 84%
    21:00 +12°C° 0.2 mm 3 m/S 753 mmHg 85%
    22:00 +11°C° 0.2 mm 3 m/S 753 mmHg 85%
    23:00 +11°C° 0.1 mm 3 m/S 753 mmHg 85%

    Morgen, 15 Dezember, Samstag

    Zeit Temperatur Niederschläge Wind Luftdruck Luftfeuchtigkeit
    00:00 +11°C° 0.1 mm 3 m/S 753 mmHg 85%
    01:00 +11°C° 0.1 mm 4 m/S 753 mmHg 85%
    02:00 +11°C° 0.1 mm 4 m/S 753 mmHg 85%
    03:00 +10°C° 0.1 mm 4 m/S 753 mmHg 85%
    04:00 +10°C° 0.1 mm 4 m/S 753 mmHg 84%
    05:00 +10°C° 0.1 mm 4 m/S 753 mmHg 84%
    06:00 +10°C° 0.1 mm 4 m/S 753 mmHg 83%
    07:00 +10°C° 0.1 mm 4 m/S 753 mmHg 83%
    08:00 +10°C° 0.3 mm 4 m/S 754 mmHg 81%
    09:00 +10°C° 0.3 mm 4 m/S 754 mmHg 79%
    10:00 +10°C° 0.3 mm 4 m/S 754 mmHg 77%
    11:00 +8°C° 0.8 mm 4 m/S 754 mmHg 77%
    12:00 +8°C° 0.8 mm 4 m/S 754 mmHg 77%
    13:00 +7°C° 0.8 mm 5 m/S 754 mmHg 77%
    14:00 +7°C° 0.4 mm 5 m/S 755 mmHg 76%
    15:00 +7°C° 0.4 mm 4 m/S 755 mmHg 76%
    16:00 +7°C° 0.4 mm 4 m/S 755 mmHg 76%
    17:00 +6°C° 0 mm 4 m/S 756 mmHg 75%
    18:00 +6°C° 0 mm 4 m/S 756 mmHg 74%
    19:00 +5°C° 0 mm 4 m/S 757 mmHg 74%
    20:00 +5°C° 0 mm 4 m/S 757 mmHg 73%
    21:00 +4°C° 0 mm 4 m/S 758 mmHg 72%
    22:00 +4°C° 0 mm 3 m/S 758 mmHg 71%
    23:00 +3°C° 0 mm 3 m/S 758 mmHg 71%

    übermorgen, 16 Dezember, Sonntag

    Zeit Temperatur Niederschläge Wind Luftdruck Luftfeuchtigkeit
    00:00 +3°C° 0 mm 3 m/S 759 mmHg 70%
    01:00 +3°C° 0 mm 3 m/S 759 mmHg 70%
    02:00 +3°C° 0 mm 3 m/S 759 mmHg 69%
    03:00 +4°C° 0 mm 2 m/S 759 mmHg 68%
    04:00 +4°C° 0 mm 2 m/S 759 mmHg 68%
    05:00 +4°C° 0 mm 2 m/S 759 mmHg 67%
    06:00 +4°C° 0 mm 2 m/S 760 mmHg 66%
    07:00 +4°C° 0 mm 2 m/S 760 mmHg 65%
    08:00 +5°C° 0 mm 2 m/S 760 mmHg 61%
    09:00 +7°C° 0 mm 1 m/S 760 mmHg 56%
    10:00 +9°C° 0 mm 1 m/S 761 mmHg 52%
    11:00 +10°C° 0 mm 1 m/S 761 mmHg 49%
    12:00 +11°C° 0 mm 1 m/S 761 mmHg 45%
    13:00 +12°C° 0 mm 1 m/S 761 mmHg 42%
    14:00 +11°C° 0 mm 1 m/S 761 mmHg 44%
    15:00 +11°C° 0 mm 1 m/S 761 mmHg 47%
    16:00 +10°C° 0 mm 1 m/S 761 mmHg 50%
    17:00 +9°C° 0 mm 1 m/S 761 mmHg 52%
    18:00 +9°C° 0 mm 1 m/S 762 mmHg 55%
    19:00 +8°C° 0 mm 1 m/S 762 mmHg 57%
    20:00 +8°C° 0 mm 1 m/S 762 mmHg 57%
    21:00 +8°C° 0 mm 1 m/S 762 mmHg 57%
    22:00 +7°C° 0 mm 1 m/S 762 mmHg 57%
    23:00 +7°C° 0 mm 1 m/S 762 mmHg 58%

    17 Dezember, Montag

    Zeit Temperatur Niederschläge Wind Luftdruck Luftfeuchtigkeit
    00:00 +7°C° 0 mm 1 m/S 761 mmHg 59%
    01:00 +7°C° 0 mm 1 m/S 761 mmHg 60%
    02:00 +7°C° 0 mm 2 m/S 761 mmHg 62%
    03:00 +7°C° 0 mm 2 m/S 761 mmHg 65%
    04:00 +7°C° 0 mm 2 m/S 760 mmHg 67%
    05:00 +7°C° 0 mm 2 m/S 760 mmHg 68%
    06:00 +7°C° 0 mm 3 m/S 760 mmHg 69%
    07:00 +7°C° 0 mm 3 m/S 760 mmHg 70%
    08:00 +8°C° 0.2 mm 3 m/S 760 mmHg 72%
    09:00 +8°C° 0.2 mm 3 m/S 759 mmHg 74%
    10:00 +8°C° 0.2 mm 4 m/S 759 mmHg 77%
    11:00 +9°C° 0.2 mm 3 m/S 759 mmHg 79%
    12:00 +10°C° 0.2 mm 3 m/S 758 mmHg 82%
    13:00 +10°C° 0.2 mm 2 m/S 758 mmHg 84%
    14:00 +10°C° 0.1 mm 2 m/S 758 mmHg 86%
    15:00 +12°C° 0.1 mm 2 m/S 757 mmHg 88%
    16:00 +12°C° 0.1 mm 2 m/S 757 mmHg 90%
    17:00 +12°C° 0 mm 2 m/S 757 mmHg 91%
    18:00 +12°C° 0 mm 2 m/S 758 mmHg 92%
    19:00 +12°C° 0 mm 2 m/S 758 mmHg 93%
    20:00 +12°C° 0.2 mm 2 m/S 758 mmHg 93%
    21:00 +10°C° 0.2 mm 2 m/S 758 mmHg 93%
    22:00 +10°C° 0.2 mm 2 m/S 758 mmHg 93%
    23:00 +10°C° 0.5 mm 2 m/S 758 mmHg 93%

    18 Dezember, Dienstag

    Zeit Temperatur Niederschläge Wind Luftdruck Luftfeuchtigkeit
    00:00 +10°C° 0.5 mm 2 m/S 758 mmHg 93%
    01:00 +10°C° 0.5 mm 2 m/S 758 mmHg 92%
    02:00 +10°C° 0.4 mm 2 m/S 759 mmHg 93%
    03:00 +9°C° 0.4 mm 2 m/S 759 mmHg 93%
    04:00 +9°C° 0.4 mm 3 m/S 759 mmHg 93%
    05:00 +9°C° 0.2 mm 3 m/S 759 mmHg 91%
    06:00 +9°C° 0.2 mm 3 m/S 760 mmHg 89%
    07:00 +9°C° 0.2 mm 3 m/S 760 mmHg 87%
    08:00 +9°C° 0 mm 3 m/S 760 mmHg 81%
    09:00 +10°C° 0 mm 3 m/S 761 mmHg 76%
    10:00 +10°C° 0 mm 3 m/S 761 mmHg 71%
    11:00 +11°C° 0 mm 3 m/S 761 mmHg 67%
    12:00 +11°C° 0 mm 3 m/S 761 mmHg 64%
    13:00 +12°C° 0 mm 4 m/S 761 mmHg 61%
    14:00 +11°C° 0 mm 4 m/S 761 mmHg 64%
    15:00 +11°C° 0 mm 4 m/S 761 mmHg 67%
    16:00 +10°C° 0 mm 3 m/S 762 mmHg 70%
    17:00 +10°C° 0 mm 3 m/S 762 mmHg 72%
    18:00 +9°C° 0 mm 3 m/S 763 mmHg 75%
    19:00 +8°C° 0 mm 3 m/S 763 mmHg 77%
    20:00 +8°C° 0 mm 3 m/S 764 mmHg 77%
    21:00 +8°C° 0 mm 3 m/S 764 mmHg 77%
    22:00 +7°C° 0 mm 2 m/S 764 mmHg 77%
    23:00 +7°C° 0 mm 2 m/S 765 mmHg 77%

    19 Dezember, Mittwoch

    Zeit Temperatur Niederschläge Wind Luftdruck Luftfeuchtigkeit
    00:00 +7°C° 0 mm 2 m/S 765 mmHg 77%
    01:00 +7°C° 0 mm 2 m/S 765 mmHg 77%
    02:00 +6°C° 0 mm 2 m/S 765 mmHg 77%
    03:00 +6°C° 0 mm 2 m/S 765 mmHg 76%
    04:00 +6°C° 0 mm 2 m/S 765 mmHg 76%
    05:00 +6°C° 0 mm 2 m/S 765 mmHg 76%
    06:00 +7°C° 0 mm 1 m/S 765 mmHg 76%
    07:00 +7°C° 0 mm 1 m/S 765 mmHg 75%
    08:00 +8°C° 0 mm 1 m/S 765 mmHg 70%
    09:00 +10°C° 0 mm 1 m/S 765 mmHg 65%
    10:00 +11°C° 0 mm 1 m/S 766 mmHg 59%
    11:00 +12°C° 0 mm 1 m/S 765 mmHg 55%
    12:00 +13°C° 0 mm 1 m/S 765 mmHg 51%
    13:00 +14°C° 0 mm 1 m/S 764 mmHg 47%
    14:00 +14°C° 0 mm 1 m/S 764 mmHg 51%
    15:00 +13°C° 0 mm 1 m/S 764 mmHg 55%
    16:00 +12°C° 0 mm 1 m/S 764 mmHg 58%
    17:00 +12°C° 0 mm 1 m/S 764 mmHg 61%
    18:00 +11°C° 0 mm 1 m/S 764 mmHg 64%
    19:00 +10°C° 0 mm 1 m/S 764 mmHg 67%
    20:00 +10°C° 0 mm 1 m/S 764 mmHg 68%
    21:00 +9°C° 0 mm 2 m/S 764 mmHg 69%
    22:00 +9°C° 0 mm 2 m/S 764 mmHg 71%
    23:00 +9°C° 0 mm 2 m/S 764 mmHg 74%
    Mehr zeigen